FW1358 Weather Reports


time (UTC)temp
F
wind
direction
speed
knots
gust
knots
rain 1hr
in
rain 24hr
in
rain mn
in
humidity
%
barometer
mb
20240222112803 56 274 0.0 2.6 0.00 0.00 0.00 72 1013.5
20240222112306 56 318 0.0 1.7 0.00 0.00 0.00 72 1013.5
20240222104303 56 208 0.0 4.3 0.00 0.00 0.00 70 1013.4
20240222103303 56 357 0.0 2.6 0.00 0.00 0.00 70 1013.3
20240222102305 56 215 0.0 2.6 0.00 0.00 0.00 69 1013.6
20240222095305 57 238 0.0 0.9 0.00 0.00 0.00 68 1013.5
20240222094303 57 352 0.0 1.7 0.00 0.00 0.00 67 1013.5
20240222093802 57 352 0.0 1.7 0.00 0.00 0.00 66 1013.5
20240222093303 57 241 0.0 4.3 0.00 0.00 0.00 66 1013.5
20240222092305 57 223 0.0 2.6 0.00 0.00 0.00 66 1013.4
20240222091803 57 272 0.0 2.6 0.00 0.00 0.00 65 1013.4
20240222090303 58 42 0.0 1.7 0.00 0.00 0.00 64 1013.5
20240222084303 58 278 0.0 1.7 0.00 0.00 0.00 63 1013.9
20240222081802 58 232 0.0 1.7 0.00 0.00 0.00 62 1014.0
20240222081303 58 214 0.0 2.6 0.00 0.00 0.00 61 1014.1
20240222080803 58 293 0.0 2.6 0.00 0.00 0.00 61 1014.3
20240222080302 58 224 0.0 1.7 0.00 0.00 0.00 60 1014.3
20240222075803 58 224 0.0 5.2 0.00 0.00 0.00 60 1014.4
20240222074803 58 314 0.0 1.7 0.00 0.00 0.00 59 1014.6
20240222074303 59 314 0.0 2.6 0.00 0.00 0.00 59 1014.6
20240222073802 58 242 0.0 2.6 0.00 0.00 0.00 58 1014.6
20240222072305 59 221 0.0 0.9 0.00 0.00 0.00 57 1014.6
20240222071302 59 305 0.9 10.4 0.00 0.00 0.00 57 1014.6
20240222070803 59 234 0.0 10.4 0.00 0.00 0.00 56 1014.7
20240222064803 58 220 0.0 5.2 0.00 0.00 0.00 55 1014.6
20240222063303 58 136 0.0 1.7 0.00 0.00 0.00 55 1014.7
20240222061303 58 234 0.0 0.9 0.00 0.00 0.00 54 1014.7
20240222060812 58 223 0.0 0.9 0.00 0.00 0.00 55 1014.8
20240222054803 58 225 0.0 0.0 0.00 0.00 0.00 54 1014.8
20240222053803 58 225 0.0 0.9 0.00 0.00 0.00 54 1014.7
20240222053303 58 219 0.0 0.9 0.00 0.00 0.00 53 1014.9
20240222052802 58 219 0.0 0.0 0.00 0.00 0.00 53 1014.8
20240222052305 58 219 0.0 0.0 0.00 0.00 0.00 53 1014.8
20240222051803 58 219 0.0 1.7 0.00 0.00 0.00 53 1014.8
20240222051303 58 219 0.0 1.7 0.00 0.00 0.00 52 1014.9
20240222050803 58 216 0.0 0.0 0.00 0.00 0.00 52 1015.0
20240222045306 58 222 0.0 0.9 0.00 0.00 0.00 51 1015.2
20240222044802 58 227 0.0 0.9 0.00 0.00 0.00 51 1015.3
20240222044303 59 227 0.0 2.6 0.00 0.00 0.00 51 1015.3
20240222041803 59 203 0.0 0.9 0.00 0.00 0.00 50 1015.0
20240222040303 59 215 0.0 2.6 0.00 0.00 0.00 50 1015.1
20240222035803 59 216 0.0 2.6 0.00 0.00 0.00 49 1015.3
20240222035306 59 226 0.0 2.6 0.00 0.00 0.00 49 1015.5
20240222033303 59 220 0.0 1.7 0.00 0.00 0.00 48 1015.6
20240222032803 59 216 0.0 1.7 0.00 0.00 0.00 48 1015.7
20240222032306 59 213 0.0 0.9 0.00 0.00 0.00 48 1015.8
20240222031803 59 220 0.0 2.6 0.00 0.00 0.00 48 1015.9
20240222030803 59 215 0.0 2.6 0.00 0.00 0.00 48 1016.0
20240222030303 59 215 0.0 2.6 0.00 0.00 0.00 48 1016.1
20240222025803 59 227 0.0 2.6 0.00 0.00 0.00 48 1016.2
20240222025305 58 227 0.0 2.6 0.00 0.00 0.00 48 1016.2
20240222024803 58 220 0.0 0.9 0.00 0.00 0.00 48 1016.0
20240222023303 58 209 0.0 0.9 0.00 0.00 0.00 48 1016.1
20240222022803 58 209 0.0 1.7 0.00 0.00 0.00 48 1016.1
20240222020303 58 213 0.0 0.0 0.00 0.00 0.00 48 1016.2
20240222015803 58 213 0.0 1.7 0.00 0.00 0.00 48 1016.2
20240222015306 58 213 0.0 1.7 0.00 0.00 0.00 47 1016.2
20240222013303 59 211 0.0 0.0 0.00 0.00 0.00 46 1016.4
20240222012804 59 211 0.0 0.0 0.00 0.00 0.00 46 1016.4
20240222012305 59 211 0.0 0.0 0.00 0.00 0.00 46 1016.4
20240222010803 60 211 0.0 0.0 0.00 0.00 0.00 46 1016.3
20240222005803 60 211 0.0 0.0 0.00 0.00 0.00 46 1016.4
20240222005306 60 211 0.0 0.0 0.00 0.00 0.00 46 1016.5
20240222004803 60 211 0.0 0.0 0.00 0.00 0.00 45 1016.5
20240222003803 61 211 0.0 0.0 0.00 0.00 0.00 46 1016.6
20240222002306 61 211 0.0 0.0 0.00 0.00 0.00 45 1016.6
20240222001803 61 211 0.0 0.0 0.00 0.00 0.00 44 1016.8
20240222001303 62 211 0.0 0.0 0.00 0.00 0.00 44 1016.7
20240222000803 62 211 0.0 0.0 0.00 0.00 0.00 44 1016.7
20240222000303 62 211 0.0 0.0 0.00 0.00 0.00 44 1016.8
20240221235803 62 211 0.0 0.9 0.00 0.00 0.00 44 1016.8
20240221233803 63 215 0.0 0.9 0.00 0.00 0.00 43 1017.2
20240221233303 63 215 0.0 0.9 0.00 0.00 0.00 43 1017.1
20240221231804 64 207 0.0 0.0 0.00 0.00 0.00 41 1017.1
20240221230803 64 207 0.0 0.9 0.00 0.00 0.00 40 1017.1
20240221225803 65 217 0.0 4.3 0.00 0.00 0.00 41 1017.3
20240221225306 65 232 0.0 2.6 0.00 0.00 0.00 40 1017.4
20240221224804 66 169 0.0 7.0 0.00 0.00 0.00 40 1017.5
20240221222803 67 217 0.0 8.7 0.00 0.00 0.00 39 1017.7
20240221222306 67 219 1.7 8.7 0.00 0.00 0.00 38 1017.7
20240221221803 67 231 0.0 5.2 0.00 0.00 0.00 39 1017.7
20240221221303 67 211 0.9 6.1 0.00 0.00 0.00 38 1017.8
20240221220803 67 212 0.9 6.1 0.00 0.00 0.00 38 1017.8
20240221220302 68 189 0.0 4.3 0.00 0.00 0.00 38 1018.1
20240221215802 68 214 0.0 4.3 0.00 0.00 0.00 38 1018.1
20240221215306 68 202 0.0 7.0 0.00 0.00 0.00 38 1018.3
20240221214303 68 228 0.0 2.6 0.00 0.00 0.00 36 1018.4
20240221213802 68 23 0.0 2.6 0.00 0.00 0.00 37 1018.4
20240221213303 68 229 0.0 7.8 0.00 0.00 0.00 36 1018.4
20240221211303 69 219 0.0 4.3 0.00 0.00 0.00 35 1018.5
20240221210304 70 230 0.0 7.0 0.00 0.00 0.00 36 1018.6
20240221205803 69 218 0.9 7.0 0.00 0.00 0.00 36 1018.7
20240221205305 69 242 0.0 5.2 0.00 0.00 0.00 36 1018.8
20240221204803 69 230 0.0 7.8 0.00 0.00 0.00 36 1018.9
20240221204302 69 221 1.7 7.8 0.00 0.00 0.00 36 1018.8
20240221203803 69 214 0.9 7.8 0.00 0.00 0.00 35 1018.8
20240221203303 69 222 0.9 7.8 0.00 0.00 0.00 36 1018.9
20240221202305 69 260 0.0 6.1 0.00 0.00 0.00 35 1019.1
20240221201303 70 210 0.0 7.0 0.00 0.00 0.00 36 1019.4
20240221200803 70 221 0.0 7.0 0.00 0.00 0.00 35 1019.6
20240221200303 70 230 0.9 7.0 0.00 0.00 0.00 35 1019.6
20240221194803 70 225 0.0 4.3 0.00 0.00 0.00 37 1020.0
20240221193803 69 231 0.9 6.1 0.00 0.00 0.00 36 1020.2
20240221192305 69 339 0.0 2.6 0.00 0.00 0.00 36 1020.2
20240221190803 69 327 0.0 7.0 0.00 0.00 0.00 37 1020.6
20240221190303 69 217 0.0 8.7 0.00 0.00 0.00 38 1020.6
20240221185803 69 218 0.9 8.7 0.00 0.00 0.00 38 1020.7
20240221184803 68 248 0.0 2.6 0.00 0.00 0.00 39 1021.0
20240221184303 68 215 0.0 2.6 0.00 0.00 0.00 38 1021.2
20240221180803 68 203 0.0 0.9 0.00 0.00 0.00 37 1022.1
20240221180303 68 314 0.0 0.9 0.00 0.00 0.00 39 1022.3
20240221175803 67 314 0.0 2.6 0.00 0.00 0.00 40 1022.4
20240221172803 67 271 0.0 2.6 0.00 0.00 0.00 39 1023.0
20240221170803 66 300 0.0 5.2 0.00 0.00 0.00 39 1023.3
20240221164803 65 221 0.0 1.7 0.00 0.00 0.00 39 1023.6
20240221161803 63 263 0.0 0.9 0.00 0.00 0.00 42 1023.8
20240221155803 60 221 0.0 2.6 0.00 0.00 0.00 46 1024.1
20240221154303 58 224 0.0 1.7 0.00 0.00 0.00 48 1024.4
20240221153304 56 224 0.0 0.9 0.00 0.00 0.00 53 1024.5
20240221152305 53 306 0.0 0.0 0.00 0.00 0.00 58 1024.7
20240221151303 50 306 0.0 0.0 0.00 0.00 0.00 61 1024.7
20240221150802 49 306 0.0 0.0 0.00 0.00 0.00 61 1024.8
20240221144803 45 306 0.0 0.0 0.00 0.00 0.00 66 1024.9
20240221142306 41 306 0.0 0.0 0.00 0.00 0.00 71 1024.9
20240221141304 40 306 0.0 0.0 0.00 0.00 0.00 72 1025.0
20240221140803 39 306 0.0 0.0 0.00 0.00 0.00 74 1024.9
20240221135803 38 306 0.0 0.0 0.00 0.00 0.00 74 1024.8
20240221135305 38 306 0.0 0.0 0.00 0.00 0.00 74 1024.9
20240221134303 37 306 0.0 0.0 0.00 0.00 0.00 75 1024.7
20240221133803 37 306 0.0 0.0 0.00 0.00 0.00 74 1024.7
20240221133304 36 306 0.0 0.0 0.00 0.00 0.00 73 1024.7
20240221132803 36 306 0.0 0.0 0.00 0.00 0.00 72 1024.8
20240221131803 36 306 0.0 0.0 0.00 0.00 0.00 73 1024.9
20240221131303 36 306 0.0 0.0 0.00 0.00 0.00 72 1024.8
20240221123304 36 306 0.0 0.0 0.00 0.00 0.00 71 1024.7
20240221122803 36 306 0.0 0.0 0.00 0.00 0.00 71 1024.8
20240221121803 36 306 0.0 0.0 0.00 0.00 0.00 71 1024.7
20240221115306 36 306 0.0 0.0 0.00 0.00 0.00 71 1024.7